User: anonymous   Login
Location: Unspecified
(0.0000°N, 0.0000°E)
Time: 00:11:58
(UTC+00:00)
Language:

NOAA 1 - Orbit

View from above orbital plane
View from above orbital plane
View from above satellite
View from above satellite

Ground track
Ground track

The orbit data is extracted from the following two-line orbital elements,

1  4793U 70106A   18265.17449182 -.00000040 +00000-0 +30224-4 0  9995
2  4793 101.7436 331.8452 0032123 087.2950 327.9489 12.53986626186583
Epoch (UTC): 22 September 2018 04:11:16
Eccentricity: 0.0032123
inclination: 101.7436°
perigee height: 1423 km
apogee height: 1473 km
right ascension of ascending node: 331.8452°
argument of perigee: 87.2950°
revolutions per day: 12.53986626
mean anomaly at epoch: 327.9489°
orbit number at epoch: 18658

The dashed part of the orbit path shows where the satellite is in the earth's shadow,  

DLR